Notices

What's New in latest Release from April 7th, 2021:

- Updated Glossary, including Speed of Maximum Gust, and Total Hourly Precipitation

- Updated national and regional climate services offices contacts and prices information

- Addition of station inventory lists for 1981-2010, 1971-2000, and 1961-1990 Normals.

If you haven't already, please take our survey and provide feedback about our website: https://eccc.sondage-survey.ca/f/LanguageSelection.aspx?s=442ca660-fcf1-47c0-95a9-59707d6fd709

Hourly Data Report for November 25, 2019

MIRAMICHI RCS
NEW BRUNSWICK
Current Station Operator: ECCC - MSC

47°00'34.000" N
65°27'54.000" W
33.00 m
8100989
71744
ACQ

Download Data

Hourly Data (November 2019)
Hourly Data Report for November 25, 2019
TIME
LST
Temp Definition
°C
Dew Point Definition
°C
Rel Hum Definition
%
Precip. Amount Definition
mm

Wind Dir Definition
10's deg

Wind Spd Definition
km/h
Visibility Definition
km
Stn Press Definition
kPa
Hmdx Definition


Wind Chill Definition


Weather Definition


00:00 1.0 0.0 93 0.0 4 21   99.22     LegendNANA
01:00 0.7 0.0 96 1.6 5 19   99.01     LegendNANA
02:00 0.1 -0.3 97 1.4 4 22   98.78     LegendNANA
03:00 0.3 -0.3 96 3.4 4 20   98.65     LegendNANA
04:00 0.4 -0.3 95 6.0 4 22   98.51     LegendNANA
05:00 0.4 -0.1 96 1.5 3 20   98.45     LegendNANA
06:00 0.4 -0.1 96 0.6 2 16   98.36     LegendNANA
07:00 0.5 -0.2 95 0.8 36 14   98.36     LegendNANA
08:00 0.5 -0.1 96 1.0 35 12   98.35     LegendNANA
09:00 0.8 -0.1 94 1.6 35 18   98.38     LegendNANA
10:00 0.8 -0.1 94 0.2 34 16   98.45     LegendNANA
11:00 0.9 -0.3 92 0.0 31 16   98.60     LegendNANA
12:00 0.6 -0.3 94 0.0 30 20   98.68     LegendNANA
13:00 0.8 -0.3 93 0.3 30 20   98.80     LegendNANA
14:00 1.3 -0.4 89 0.0 29 18   98.94     LegendNANA
15:00 1.3 -0.2 90 0.0 27 18   99.10     LegendNANA
16:00 1.3 -0.4 88 0.0 28 18   99.27     LegendNANA
17:00 1.5 -0.8 84 0.0 28 17   99.41     LegendNANA
18:00 1.0 -1.6 83 0.0 27 14   99.56     LegendNANA
19:00 0.6 -1.6 86 0.0 27 17   99.66     LegendNANA
20:00 -0.2 -1.6 90 0.0 25 8   99.77   -3 LegendNANA
21:00 0.0 -1.7 88 0.0 24 19   99.86   -5 LegendNANA
22:00 0.1 -1.5 89 0.0 24 19   99.96     LegendNANA
23:00 0.8 -1.1 87 0.0 24 19   100.06     LegendNANA

Notes on Data Quality.

Legend

  • E = Estimated
  • M = Missing
  • NA = Not Available*
  • [empty] = Indicates an unobserved value
Date modified: